Location: Wells
(51.2093°N, 2.6446°W)
Time: 22:04:48
(UTC+01:00)

CUTE-I - Pass Details

Date: 15 March 2026
Orbit: 804 x 818 km, 98.7° (Epoch: 11 April)

Event Time Altitude Azimuth Distance (km) Brightness Sun altitude
Rises 04:55:20 0° 32° (NNE) 3,329 ? -14.7°
Reaches altitude 10° 04:59:41 10° 66° (ENE) 2,391 ? -14.1°
Maximum altitude 05:01:15 11° 83° (E) 2,301 ? -13.8°
Drops below altitude 10° 05:02:50 10° 101° (E) 2,387 ? -13.6°
Sets 05:07:08 0° 135° (SE) 3,313 ? -12.9°
